TimeEST,TemperatureF,Dew PointF,Humidity,Sea Level PressureIn,VisibilityMPH,Wind Direction,Wind SpeedMPH,Gust SpeedMPH,PrecipitationIn,Events,Conditions,WindDirDegrees,DateUTC
12:53 AM,23.0,17.1,78,30.32,10.0,Calm,Calm,-,N/A,,Clear,0,2012-12-07 05:53:00
1:53 AM,21.9,18.0,85,30.31,10.0,Calm,Calm,-,N/A,,Clear,0,2012-12-07 06:53:00
2:53 AM,21.9,18.0,85,30.31,10.0,Calm,Calm,-,N/A,,Clear,0,2012-12-07 07:53:00
3:53 AM,21.9,18.0,85,30.29,10.0,Calm,Calm,-,N/A,,Clear,0,2012-12-07 08:53:00
4:53 AM,23.0,18.0,81,30.29,10.0,Calm,Calm,-,N/A,,Clear,0,2012-12-07 09:53:00
5:53 AM,23.0,19.0,85,30.29,10.0,Calm,Calm,-,N/A,,Clear,0,2012-12-07 10:53:00
6:53 AM,24.1,19.0,81,30.28,10.0,Calm,Calm,-,N/A,,Clear,0,2012-12-07 11:53:00
7:53 AM,24.1,19.9,84,30.27,8.0,Calm,Calm,-,N/A,,Clear,0,2012-12-07 12:53:00
8:53 AM,26.1,21.0,81,30.27,8.0,Calm,Calm,-,N/A,,Clear,0,2012-12-07 13:53:00
9:53 AM,28.0,21.9,78,30.27,9.0,Calm,Calm,-,N/A,,Clear,0,2012-12-07 14:53:00
10:53 AM,33.1,25.0,72,30.22,10.0,SSW,5.8,-,N/A,,Partly Cloudy,200,2012-12-07 15:53:00
11:53 AM,36.0,26.1,67,30.19,10.0,South,5.8,-,N/A,,Scattered Clouds,180,2012-12-07 16:53:00
12:53 PM,37.0,27.0,67,30.17,10.0,Calm,Calm,-,N/A,,Mostly Cloudy,0,2012-12-07 17:53:00
1:53 PM,39.9,28.9,65,30.15,10.0,South,5.8,-,N/A,,Mostly Cloudy,180,2012-12-07 18:53:00
2:53 PM,41.0,30.0,65,30.13,10.0,South,3.5,-,0.00,Rain,Light Rain,190,2012-12-07 19:53:00
3:53 PM,41.0,32.0,70,30.13,10.0,South,4.6,-,0.00,Rain,Light Rain,180,2012-12-07 20:53:00
4:53 PM,39.9,33.1,77,30.12,10.0,Calm,Calm,-,0.00,Rain,Light Rain,0,2012-12-07 21:53:00
5:53 PM,39.0,35.1,86,30.12,10.0,SE,3.5,-,0.00,Rain,Light Rain,140,2012-12-07 22:53:00
6:53 PM,39.0,36.0,89,30.12,10.0,Calm,Calm,-,0.00,Rain,Light Rain,0,2012-12-07 23:53:00
7:53 PM,37.4,35.6,93,30.06,6.0,North,3.5,-,N/A,Rain,Light Rain,350,2012-12-08 00:53:00
8:53 PM,37.9,36.0,93,30.10,6.0,Calm,Calm,-,0.00,,Overcast,0,2012-12-08 01:53:00
9:33 PM,37.4,37.4,100,30.04,6.0,Calm,Calm,-,N/A,,Overcast,0,2012-12-08 02:33:00
9:53 PM,37.9,37.0,97,30.09,6.0,Calm,Calm,-,N/A,,Overcast,0,2012-12-08 02:53:00
10:53 PM,39.0,37.0,93,30.08,5.0,Calm,Calm,-,N/A,,Overcast,0,2012-12-08 03:53:00
11:53 PM,37.9,36.0,93,30.08,4.0,Calm,Calm,-,0.00,Rain,Light Rain,0,2012-12-08 04:53:00